LPE2408 SPJC-MROC

Flight info

Callsign LPE2408
Flight time N/A
Altitude 36000
Route BTE UV1 TRU UL780 GYV UM659 DRAKE PARRI4D
Aircraft A320/M-SDE3FGHIRWY/LB1

Departure

Time N/A
Airport Jorge Chávez International Airport (SPJC)

Arrival

Time 2026-05-06 21:20
Airport Juan Santamaría International Airport (MROC)
Time Latitude Longitude Altitude Speed Heading
2026-05-06 20:49 7.13363 -83.20851 35918 ft 462 kts 347°
2026-05-06 20:50 7.19570 -83.22364 35915 ft 462 kts 347°
2026-05-06 20:50 7.25819 -83.23885 35910 ft 462 kts 346°
2026-05-06 20:51 7.32056 -83.25411 35909 ft 461 kts 347°
2026-05-06 20:51 7.38293 -83.26949 35910 ft 461 kts 346°
2026-05-06 20:52 7.44532 -83.28497 35907 ft 461 kts 347°
2026-05-06 20:52 7.50770 -83.30024 35905 ft 462 kts 347°
2026-05-06 20:53 7.57013 -83.31547 35905 ft 461 kts 347°
2026-05-06 20:53 7.63254 -83.33068 35906 ft 461 kts 347°
2026-05-06 20:54 7.69497 -83.34600 35908 ft 461 kts 347°
2026-05-06 20:54 7.74681 -83.35878 35908 ft 461 kts 346°
2026-05-06 20:55 7.80923 -83.37409 35907 ft 462 kts 347°
2026-05-06 20:55 7.87162 -83.38934 35907 ft 461 kts 346°
2026-05-06 20:56 7.93402 -83.40472 35900 ft 461 kts 347°
2026-05-06 20:56 8.00656 -83.42258 35899 ft 462 kts 347°
2026-05-06 20:57 8.05886 -83.43539 35884 ft 462 kts 347°
2026-05-06 20:57 8.09008 -83.44303 35669 ft 462 kts 347°
2026-05-06 20:57 8.12135 -83.45068 35424 ft 463 kts 347°
2026-05-06 20:57 8.15228 -83.45826 35191 ft 463 kts 347°
2026-05-06 20:58 8.18360 -83.46594 34961 ft 464 kts 347°
2026-05-06 20:58 8.21497 -83.47366 34731 ft 464 kts 347°
2026-05-06 20:58 8.24637 -83.48141 34504 ft 465 kts 347°
2026-05-06 20:58 8.27777 -83.48916 34279 ft 466 kts 347°
2026-05-06 20:59 8.30934 -83.49694 34052 ft 467 kts 347°
2026-05-06 20:59 8.34097 -83.50470 33827 ft 468 kts 347°
2026-05-06 20:59 8.37259 -83.51246 33569 ft 469 kts 347°
2026-05-06 20:59 8.40425 -83.52024 33316 ft 468 kts 347°
2026-05-06 21:00 8.43594 -83.52806 33068 ft 469 kts 347°
2026-05-06 21:00 8.46760 -83.53586 32821 ft 468 kts 347°
2026-05-06 21:00 8.49922 -83.54363 32575 ft 467 kts 347°
2026-05-06 21:00 8.53074 -83.55139 32331 ft 465 kts 347°
2026-05-06 21:01 8.56211 -83.55910 32090 ft 463 kts 347°
2026-05-06 21:01 8.59338 -83.56680 31849 ft 461 kts 347°
2026-05-06 21:01 8.62446 -83.57447 31610 ft 459 kts 347°
2026-05-06 21:01 8.65542 -83.58211 31375 ft 457 kts 347°
2026-05-06 21:02 8.68620 -83.58970 30992 ft 453 kts 347°
2026-05-06 21:02 8.71676 -83.59723 30411 ft 451 kts 347°
2026-05-06 21:02 8.74711 -83.60471 29817 ft 449 kts 347°
2026-05-06 21:02 8.77708 -83.61208 29209 ft 445 kts 347°
2026-05-06 21:03 8.80703 -83.61941 28645 ft 441 kts 348°
2026-05-06 21:03 8.83670 -83.62667 28082 ft 438 kts 348°
2026-05-06 21:03 8.86617 -83.63391 27523 ft 434 kts 348°
2026-05-06 21:03 8.89547 -83.64111 26980 ft 431 kts 348°
2026-05-06 21:04 8.92450 -83.64822 26432 ft 428 kts 348°
2026-05-06 21:04 8.95333 -83.65528 25902 ft 425 kts 348°
2026-05-06 21:04 8.98201 -83.66235 25375 ft 423 kts 348°
2026-05-06 21:04 9.01050 -83.66940 24871 ft 420 kts 348°
2026-05-06 21:05 9.03882 -83.67641 24379 ft 418 kts 348°
2026-05-06 21:05 9.06703 -83.68340 23900 ft 416 kts 349°
2026-05-06 21:05 9.09509 -83.69035 23410 ft 415 kts 349°
2026-05-06 21:05 9.12312 -83.69726 22886 ft 412 kts 349°
2026-05-06 21:06 9.15089 -83.70407 22415 ft 409 kts 349°
2026-05-06 21:06 9.17851 -83.71087 21931 ft 407 kts 349°
2026-05-06 21:06 9.20595 -83.71765 21478 ft 405 kts 349°
2026-05-06 21:06 9.23329 -83.72442 20980 ft 404 kts 349°
2026-05-06 21:07 9.26054 -83.73116 20475 ft 403 kts 349°
2026-05-06 21:07 9.28770 -83.73787 19958 ft 402 kts 349°
2026-05-06 21:07 9.31486 -83.74457 19429 ft 402 kts 349°
2026-05-06 21:07 9.34203 -83.75127 18931 ft 402 kts 349°
2026-05-06 21:08 9.36918 -83.75799 18381 ft 401 kts 349°
2026-05-06 21:08 9.39627 -83.76473 17795 ft 400 kts 349°
2026-05-06 21:08 9.42315 -83.77143 17225 ft 397 kts 349°
2026-05-06 21:08 9.44979 -83.77806 16711 ft 392 kts 349°
2026-05-06 21:09 9.47580 -83.78454 16112 ft 377 kts 349°
2026-05-06 21:09 9.50067 -83.79075 15630 ft 360 kts 349°
2026-05-06 21:09 9.52457 -83.79674 15138 ft 347 kts 350°
2026-05-06 21:09 9.54755 -83.80249 14668 ft 334 kts 350°
2026-05-06 21:10 9.56993 -83.80808 14209 ft 330 kts 350°
2026-05-06 21:10 9.59218 -83.81357 13741 ft 328 kts 350°
2026-05-06 21:10 9.61439 -83.81905 13247 ft 329 kts 349°
2026-05-06 21:10 9.63668 -83.82454 12800 ft 330 kts 349°
2026-05-06 21:11 9.65904 -83.83007 12330 ft 331 kts 350°
2026-05-06 21:11 9.68106 -83.83553 12205 ft 321 kts 349°
2026-05-06 21:11 9.70220 -83.84078 12013 ft 314 kts 351°
2026-05-06 21:11 9.72274 -83.84787 11945 ft 315 kts 336°
2026-05-06 21:12 9.74128 -83.85999 11696 ft 321 kts 320°
2026-05-06 21:12 9.75728 -83.87579 11358 ft 320 kts 316°
2026-05-06 21:12 9.77303 -83.89171 11020 ft 318 kts 317°
2026-05-06 21:12 9.78870 -83.90748 10690 ft 315 kts 316°
2026-05-06 21:13 9.80419 -83.92300 10246 ft 309 kts 317°
2026-05-06 21:13 9.81943 -83.93821 9867 ft 307 kts 317°
2026-05-06 21:13 9.83472 -83.95347 9124 ft 308 kts 317°
2026-05-06 21:13 9.84987 -83.96862 8544 ft 304 kts 317°
2026-05-06 21:14 9.86483 -83.98360 7947 ft 301 kts 317°
2026-05-06 21:14 9.87948 -83.99825 7574 ft 289 kts 317°
2026-05-06 21:14 9.89318 -84.01199 7391 ft 267 kts 316°
2026-05-06 21:14 9.90499 -84.02579 7211 ft 251 kts 304°
2026-05-06 21:15 9.91393 -84.04050 6859 ft 244 kts 303°
2026-05-06 21:15 9.92273 -84.05497 6554 ft 233 kts 303°
2026-05-06 21:15 9.93099 -84.06849 6433 ft 220 kts 303°
2026-05-06 21:15 9.93883 -84.08130 6366 ft 204 kts 304°
2026-05-06 21:16 9.94745 -84.09206 6127 ft 193 kts 321°
2026-05-06 21:16 9.95857 -84.09874 5869 ft 175 kts 341°
2026-05-06 21:16 9.96969 -84.10120 5640 ft 156 kts 357°
2026-05-06 21:16 9.98033 -84.10087 5450 ft 152 kts
2026-05-06 21:17 9.99072 -84.10248 5269 ft 151 kts 344°
2026-05-06 21:17 10.00024 -84.10702 5063 ft 151 kts 328°
2026-05-06 21:17 10.00834 -84.11427 4861 ft 160 kts 314°
2026-05-06 21:17 10.01422 -84.12385 4630 ft 165 kts 297°
2026-05-06 21:18 10.01712 -84.13552 4373 ft 170 kts 277°
2026-05-06 21:18 10.01640 -84.14715 4159 ft 165 kts 256°
2026-05-06 21:18 10.01284 -84.15785 3909 ft 156 kts 249°
2026-05-06 21:18 10.00907 -84.16795 3699 ft 149 kts 253°
2026-05-06 21:19 10.00547 -84.17757 3515 ft 144 kts 252°
2026-05-06 21:19 10.00189 -84.18710 3334 ft 141 kts 250°
2026-05-06 21:19 9.99863 -84.19632 3164 ft 138 kts 253°
2026-05-06 21:19 9.99522 -84.20528 3052 ft 127 kts 252°
2026-05-06 21:20 9.99254 -84.21252 2996 ft 84 kts 249°
2026-05-06 21:20 9.99111 -84.21628 2978 ft 43 kts 249°
2026-05-06 21:20 9.99018 -84.21889 2954 ft 37 kts 248°
2026-05-06 21:20 9.98931 -84.22116 2942 ft 28 kts 249°
2026-05-06 21:21 9.98928 -84.22187 2937 ft 2 kts 330°
2026-05-06 21:21 9.98964 -84.22192 2943 ft 8 kts 351°
2026-05-06 21:21 9.99036 -84.22199 2939 ft 10 kts 20°
2026-05-06 21:21 9.99069 -84.22160 2942 ft 5 kts 70°
2026-05-06 21:22 9.99074 -84.22147 2948 ft 0 kts 70°
2026-05-06 21:22 9.99079 -84.22133 2944 ft 7 kts 70°
2026-05-06 21:22 9.99096 -84.22090 2948 ft 5 kts 69°
2026-05-06 21:22 9.99106 -84.22045 2953 ft 10 kts 92°
2026-05-06 21:23 9.99094 -84.21955 2959 ft 11 kts 92°
2026-05-06 21:23 9.99115 -84.21877 2962 ft 12 kts 71°
2026-05-06 21:23 9.99148 -84.21790 2963 ft 14 kts 69°
2026-05-06 21:23 9.99183 -84.21695 2970 ft 15 kts 70°
2026-05-06 21:24 9.99219 -84.21602 2975 ft 12 kts 68°
2026-05-06 21:24 9.99240 -84.21544 2979 ft 6 kts 69°
2026-05-06 21:24 9.99252 -84.21513 2982 ft 5 kts 71°
2026-05-06 21:24 9.99264 -84.21477 2984 ft 6 kts 68°
2026-05-06 21:25 9.99282 -84.21433 2988 ft 7 kts 68°
2026-05-06 21:25 9.99301 -84.21381 2992 ft 9 kts 69°
2026-05-06 21:25 9.99324 -84.21319 2997 ft 10 kts 68°
2026-05-06 21:25 9.99352 -84.21244 3002 ft 13 kts 69°
2026-05-06 21:26 9.99388 -84.21149 3006 ft 15 kts 68°
2026-05-06 21:26 9.99421 -84.21062 3014 ft 11 kts 69°
2026-05-06 21:26 9.99445 -84.20998 3022 ft 10 kts 69°
2026-05-06 21:26 9.99469 -84.20934 3030 ft 10 kts 69°
2026-05-06 21:27 9.99496 -84.20861 3036 ft 12 kts 69°
2026-05-06 21:27 9.99522 -84.20791 3034 ft 9 kts 69°
2026-05-06 21:27 9.99544 -84.20734 3034 ft 9 kts 69°
2026-05-06 21:27 9.99567 -84.20672 3036 ft 10 kts 69°
2026-05-06 21:28 9.99592 -84.20605 3034 ft 10 kts 69°
2026-05-06 21:28 9.99613 -84.20549 3036 ft 7 kts 69°
2026-05-06 21:28 9.99631 -84.20501 3034 ft 8 kts 69°
2026-05-06 21:28 9.99652 -84.20446 3035 ft 7 kts 68°
2026-05-06 21:29 9.99665 -84.20434 3034 ft 0 kts
2026-05-06 21:29 9.99679 -84.20441 3034 ft 5 kts 338°
2026-05-06 21:29 9.99706 -84.20450 3034 ft 3 kts 341°
2026-05-06 21:29 9.99711 -84.20452 3034 ft 0 kts 340°